197 
ASUS46 KSEW 262010
RWRWA 

WASHINGTON REGIONAL WEATHER ROUNDUP
NATIONAL WEATHER SERVICE SEATTLE WA
1200 PM PST WED NOV 26 2014

NOTE:"FAIR" INDICATES FEW OR NO CLOUDS BELOW 12,000 FEET WITH NO 
SIGNIFICANT WEATHER AND/OR OBSTRUCTIONS TO VISIBILITY.

WAZ505-507>509-262100-
SEATTLE, TACOMA, EVERETT, AND VICINITY
  
CITY           SKY/WX    TMP DP  RH WIND       PRES   REMARKS
EVERETT        CLOUDY    57  51  80 S24G32    30.06F                  
BOEING FIELD   CLOUDY    61  51  70 S5        30.08F                  
RENTON         CLOUDY    60  52  74 S6        30.08F                  
SEATAC AIRPORT CLOUDY    57  52  83 SW7       30.09F                  
JBLM-MCCHORD   CLOUDY    58  56  92 S6        30.08F                  
PUYALLUP       NOT AVBL                                               
JBLM-FT LEWIS  CLOUDY    58  56  94 SW5       30.08F                  
TACOMA NARROWS CLOUDY    57  52  83 S9        30.09F                  
$$
 
WAZ001-503-506-510-514-515-262100-
NORTH INTERIOR
  
CITY           SKY/WX    TMP DP  RH WIND       PRES   REMARKS
BELLINGHAM     CLOUDY    54  51  90 S10       30.04F FOG              
FRIDAY HARBOR  CLOUDY    52  50  93 SE3       30.05F                  
EASTSOUND      CLOUDY    54  54 100 S7        30.02F                  
PORT ANGELES   CLOUDY    56  51  84 SE5       30.03F                  
NAS WHIDBEY    CLOUDY    56  52  86 SE9       30.04F                  
BURLINGTON     CLOUDY    55  54  94 SE6       30.06F                  
$$
 
WAZ020-022-039-040-504-511-512-262100-
SOUTHWEST INTERIOR
  
CITY           SKY/WX    TMP DP  RH WIND       PRES   REMARKS
SHELTON        CLOUDY    56  54  93 W9        30.07F                  
OLYMPIA        CLOUDY    57  53  86 SW7       30.09F                  
CHEHALIS       CLOUDY    59  55  88 S10       30.09F                  
KELSO          CLOUDY    59  52  77 S10       30.15F                  
VANCOUVER      CLOUDY    60  51  72 VRB5      30.13F                  
SCAPPOOSE, OR  CLOUDY    58  53  84 CALM      30.12F                  
PORTLAND, OR   CLOUDY    59  53  80 E6        30.13F                  
$$
 
WAZ021-516-517-262100-
WASHINGTON COAST
  
CITY           SKY/WX    TMP DP  RH WIND       PRES   REMARKS
FORKS          LGT RAIN  53  53 100 S10G28    30.04F FOG              
HOQUIAM        CLOUDY    53  53 100 CALM      30.09F FOG              
ASTORIA, OR    CLOUDY    56  53  90 W7        30.10F                  
$$
 
WAZ019-023-024-040-518-519-262100-
CASCADE MOUNTAINS AND COLUMBIA GORGE
  
CITY           SKY/WX    TMP DP  RH WIND       PRES   REMARKS
STAMPEDE PASS  NOT AVBL                                               
TROUTDALE, OR  PTSUNNY   61  51  70 E5        30.12F                  
THE DALLES, OR PTSUNNY   59  45  59 CALM      30.15F                  
$$

WAZ026-027-041>044-520-521-262100-
EAST SLOPES
  
CITY           SKY/WX    TMP DP  RH WIND       PRES   REMARKS
OMAK           CLOUDY    35  33  92 S6        30.14F FOG              
WENATCHEE      CLOUDY    39  34  82 CALM      30.14F                  
ELLENSBURG     CLOUDY    41  37  86 CALM      30.13F                  
YAKIMA         FOG       41  39  93 CALM      30.15F VSB 3/4          
$$

WAZ028-034-035-262100-
COLUMBIA BASIN
  
CITY           SKY/WX    TMP DP  RH WIND       PRES   REMARKS
EPHRATA        CLOUDY    38  37  97 N3        30.14F                  
MOSES LAKE     CLOUDY    38  37  97 SE3       30.14F FOG              
PASCO          FOG       42  42 100 NW7       30.17F VSB 3/4          
HERMISTON, OR  CLOUDY    63  43  48 NW6       30.13F                  
$$

WAZ036>038-262100-
NORTHEAST WASHINGTON
  
CITY           SKY/WX    TMP DP  RH WIND       PRES   REMARKS
SPOKANE GEIGER FOG       40  40 100 S8        30.12F VSB 3/4          
SPOKANE FELTS  CLOUDY    40  38  93 NE5       30.15S FOG              
FAIRCHILD AFB  FOG       39  39 100 S5        30.11F VSB 1/4          
COEURDALENE,ID CLOUDY    37  36  93 NW6       30.13S                  
DEER PARK      FOG       34  34 100 N3        30.14F VSB 1/4          
$$

WAZ029>033-262100-
SOUTHEAST WASHINGTON
  
CITY           SKY/WX    TMP DP  RH WIND       PRES   REMARKS
PULLMAN        CLOUDY    53  43  68 SW9       30.18F                  
LEWISTON, ID   CLOUDY    45  43  93 N3        30.17F                  
WALLA WALLA    PTSUNNY   63  44  50 S9        30.15F                  
PENDLETON, OR  CLOUDY    61  40  45 CALM      30.14F                  
$$